Location: Hastringsfeld
(50.9620°N, 10.4787°E)
Time: 03:38:15
(UTC+00:00)

ATLAS 3B R/B - Pass Details

Date: 23 April 2024
Orbit: 943 x 1251 km, 63.8° (Epoch: 17 May)

Event Time Altitude Azimuth Distance (km) Brightness Sun altitude
Rises 00:34:28 0° 311° (NW) 4,128 6.0 -24.2°
Reaches altitude 10° 00:37:19 10° 317° (NW) 3,190 5.5 -24.0°
Maximum altitude 00:44:52 51° 32° (NNE) 1,538 3.8 -23.5°
Drops below altitude 10° 00:52:28 10° 107° (ESE) 3,218 5.3 -23.0°
Sets 00:55:21 0° 113° (ESE) 4,166 5.8 -22.8°
